Location: Bishop�s Knoyle
(51.0728°N, 2.1714°W)
Time: 10:27:04
(UTC+00:00)

ISS - Pass Details

Date: 01 October 2021
Orbit: 417 x 423 km, 51.6° (Epoch: 20 October)

Event Time Altitude Azimuth Distance (km) Brightness Sun altitude
Rises 19:55:37 0° 284° (WNW) 2,366 1.6 -20.8°
Reaches altitude 10° 19:57:57 10° 270° (W) 1,500 0.0 -21.1°
Maximum altitude 20:00:43 24° 214° (SW) 909 -2.0 -21.5°
Enters shadow 20:00:44 24° 214° (SW) 909 -2.0 -21.6°
